Location: Cohoes
(42.7742°N, 73.7001°W)
Time: 14:22:05
(UTC+00:00)

Daily predictions for brighter satellites

Satellite Brightness Start Highest point End
(mag) Time Altitude Azimuth Time Altitude Azimuth Time Altitude Azimuth
CZ-4B R/B 3.9 21:53:09 10° S 21:58:21 59° WSW 22:03:35 10° NNW
BREEZE-M DEB (TANK) 3.9 21:52:01 10° SW 22:00:15 43° SSE 22:03:37 10° E
Cosmos 1680 Rocket 4.4 21:56:08 10° SSE 22:00:37 30° E 22:05:08 10° NE
NOSS 2-3 (C) 4.3 21:58:57 10° S 22:02:55 37° ESE 22:07:23 10° NE
Cosmos 2278 4.4 21:58:07 10° SSE 22:03:08 33° ESE 22:08:11 10° NE
Sich 1 3.4 21:59:18 10° N 22:03:27 41° ENE 22:07:36 10° SSE
Cosmos 2233 Rocket 4.3 22:01:50 10° N 22:08:09 77° W 22:14:23 10° S
Meteor 2-20 4.4 22:03:26 10° S 22:09:32 77° E 22:15:42 10° N
Cosmos 1656 3.7 22:05:01 10° SSW 22:10:33 85° ESE 22:16:05 10° NNE
Cosmos 1666 Rocket 4.1 22:06:38 10° N 22:10:40 36° ENE 22:14:39 10° SE
COSMO-SKYMED 1 3.8 22:09:43 10° NE 22:13:08 22° E 22:16:31 10° SE
Cosmos 1862 4.0 22:10:53 10° N 22:14:31 33° ENE 22:18:07 10° SE
AQUARIUS 4.1 22:10:20 10° SSE 22:14:46 66° ENE 22:19:14 10° N
Cosmos 2221 4.0 22:14:33 10° SSW 22:18:36 39° WNW 22:22:42 10° N
IRS-1C Rocket 4.2 22:15:44 10° SSE 22:21:01 83° WSW 22:26:20 10° NNW
APEX 4.1 22:20:13 10° SSE 22:23:08 23° ESE 22:24:47 16° ENE
Cosmos 923 Rocket 4.0 22:21:18 10° S 22:26:29 68° ESE 22:31:39 10° NNE
ERBS 3.6 22:28:04 10° WSW 22:31:08 33° NW 22:33:58 11° NNE
Cosmos 2056 Rocket 4.2 22:28:47 10° N 22:33:17 30° ENE 22:37:49 10° ESE
Cosmos 1891 Rocket 4.4 22:29:17 10° N 22:35:38 71° E 22:41:47 10° SSE
Cosmos 1464 Rocket 3.9 22:30:02 10° N 22:36:11 71° E 22:42:17 10° SSE
YAOGAN 1 3.5 22:33:19 10° ESE 22:36:54 26° ENE 22:40:30 10° NNE
Cosmos 1470 Rocket 4.1 22:37:46 10° N 22:41:55 36° ENE 22:46:02 10° SE
CSL-04 Rocket 4.1 22:41:55 10° SE 22:46:49 38° ENE 22:51:41 10° N
Cosmos 1072 Rocket 4.5 22:40:44 10° N 22:46:55 88° W 22:53:07 10° S
SeaSat 1 2.4 22:44:24 10° SE 22:49:15 60° ENE 22:54:07 10° NNW
Cosmos 1633 3.2 22:51:54 10° NNW 22:55:29 57° W 22:59:02 10° S
USA 215 4.3 22:52:27 19° ENE 22:55:51 29° NNE 23:01:17 10° NW
H-2A R/B 4.3 22:53:54 10° SSW 22:57:31 39° W 23:01:07 10° NNW
SL-16 R/B 3.6 22:53:48 10° SE 22:56:48 19° ESE 22:56:48 19° ESE
Cosmos 1980 Rocket 2.2 22:53:45 10° SSW 22:59:21 67° ESE 23:04:10 14° NNE
Envisat 3.0 22:54:28 10° SSE 22:59:33 88° WSW 23:04:41 10° NNW
SKYMED 2 3.4 22:57:08 10° NNE 23:01:29 73° ESE 23:05:49 10° S
Meteor 2-11 Rocket 4.4 22:57:59 10° N 23:04:08 82° E 23:10:16 10° S
Cosmos 2322 Rocket 3.8 23:01:43 10° SE 23:03:32 16° SE 23:03:32 16° SE
NOSS 2-3 (E) 4.1 23:01:30 10° SW 23:05:48 60° NW 23:09:31 17° NNE
Cosmos 2297 Rocket 4.1 23:01:33 10° NW 23:06:30 32° WSW 23:11:26 10° SSW
Cosmos 2346 Rocket 4.4 23:00:25 10° S 23:06:37 74° E 23:12:48 10° NNE
Cosmos 2227 Rocket 3.9 23:01:58 10° NW 23:07:02 34° WSW 23:12:03 10° SSW
Okean-O 3.7 23:08:15 10° S 23:12:31 47° W 23:16:48 10° NNW
NOSS 3-1 (A) 4.2 23:08:51 10° WSW 23:14:12 45° NW 23:19:41 13° NNE
GPS 2-04 Rocket1 4.1 23:12:26 10° SW 23:15:06 21° S 23:15:22 21° SSE
NOSS 2-3 (D) 4.3 23:11:13 10° SW 23:15:29 53° NW 23:18:45 20° NNE
GEOS 3 Rocket 4.2 23:17:06 17° NNE 23:21:03 54° NW 23:26:10 10° WSW
Cosmos 1371 Rocket 3.9 23:18:47 10° NNW 23:24:00 85° WSW 23:29:10 10° SSE
CZ-4 R/B 1.5 23:20:07 10° S 23:24:15 75° WSW 23:28:20 10° NNW
Cosmos 2263 Rocket 2.5 23:19:26 10° NNW 23:24:42 41° ENE 23:24:46 41° ENE
Cosmos 158 Rocket 3.9 23:19:49 10° SSW 23:25:08 87° WNW 23:28:39 21° NNE
Lacrosse 4 Rocket 3.6 23:24:32 10° W 23:27:41 21° NW 23:30:37 11° N
YAOGAN 6 3.3 23:25:01 10° S 23:28:26 51° W 23:31:50 10° NNW
Centaur D-1A AC-31 3.7 23:30:58 10° S 23:32:28 13° SSE 23:32:28 13° SSE
GENESIS II 4.4 23:29:48 10° SSW 23:33:15 60° S 23:33:15 60° S
SL-8 R/B 3.7 23:29:48 10° SW 23:34:33 62° SSE 23:34:50 60° SE
Cosmos 2228 Rocket 2.9 23:31:09 10° S 23:35:35 76° E 23:35:48 74° ENE
Cosmos 1697 Rocket 4.1 23:32:38 10° WSW 23:37:48 36° WNW 23:42:59 10° N
Cosmos 1151 Rocket 4.3 23:35:32 10° SSW 23:39:39 41° WNW 23:43:49 10° N
DELTA 2 R/B (1) 4.3 23:35:43 10° SW 23:40:47 36° SSE 23:41:04 36° SSE
Ariane Rocket 3.9 23:44:24 35° NNE 23:44:24 35° NNE 23:47:29 10° N
Cosmos 1933 3.8 23:40:45 10° SSW 23:44:46 61° W 23:45:34 49° NNW
CENTAUR R/B 4.2 23:38:58 10° NNW 23:45:02 24° NNE 23:45:21 24° NNE
COSMO-SKYMED 1 4.1 23:45:25 10° N 23:49:20 34° WNW 23:53:15 10° SW
Cosmos 1933 Rocket 4.1 23:45:20 10° NNW 23:49:37 57° W 23:53:52 10° S
Cosmos 1634 Rocket 3.8 23:47:10 10° N 23:53:23 87° E 23:59:33 10° S
